Regional Weather Roundup
Issued by NWS Wakefield, VA

Home | Current Version | Previous Version | Text Only | Print | Product List | Glossary Off
Versions: 1 2 3 4 5 6 7 8 9 10 11 12 13 14 15 16 17 18 19 20 21 22 23 24 25 26 27 28

000
ASUS41 KAKQ 172310
RWRAKQ

REGIONAL WEATHER ROUNDUP
NATIONAL WEATHER SERVICE WAKEFIELD VA
700 PM EDT THU APR 17 2014

Note: "fair" indicates few or no clouds below 12,000 feet with no
significant weather and/or obstructions to visibility. * = Denotes
station may not report precipitation (e.g., rain,snow,etc.),
thunder or fog.

VAZ042-051-052>054-056-180000-
NORTHERN VIRGINIA

CITY           SKY/WX    TMP DP  RH WIND       PRES   REMARKS
WASH NATIONAL  MOCLDY    52  33  48 E13       30.57S
DULLES         PTCLDY    51  30  44 E13       30.54S
FORT BELVOIR   CLEAR     52  31  44 E8        30.56S
QUANTICO       PTCLDY    53  34  48 SE13      30.56S
FREDERICKSBRG* CLEAR     54  34  47 E8        30.54S
STAFFORD*      CLEAR     52  36  53 E12G17    30.58S
WARRENTON      CLEAR     54  40  58 SE10      30.52S
CULPEPER*      CLEAR     57  27  30 SE6       30.53S
MANASSAS*      CLEAR     54  30  40 E13       30.54S
LEESBURG*      CLEAR     54  34  47 SE9G16    30.54S
WINCHESTER     CLEAR     54  28  37 SE9       30.49F
$$

VAZ048-049-060>072-079>083-180000-
CENTRAL AND SOUTH CENTRAL VIRGINIA...AND NORTH CENTRAL NORTH CAROLINA

CITY           SKY/WX    TMP DP  RH WIND       PRES   REMARKS
RICHMOND       MOCLDY    53  32  44 E10       30.52S
CHESTERFIELD*  NOT AVBL
HANOVER        CLEAR     52  31  44 E6        30.54S
TAPPAHANNOCK*  CLEAR     51  31  46 NE8       30.55F
CHARLOTTSVILLE CLEAR     56  27  32 E6        30.48S
ORANGE*        CLEAR     54  32  43 E7        30.52S
LOUISA*        CLEAR     54  34  47 E7        30.49F
FARMVILLE*     CLEAR     61  28  29 NE9       30.46S
SOUTH HILL*    CLEAR     61  37  41 NE3       30.52S
ROANOKE RAPIDS CLEAR     57  41  54 NE7       30.48S
RALEIGH        PTCLDY    61  36  39 NE8       30.42F
$$

VAZ088>098-180000-
SOUTHEAST VIRGINIA

CITY           SKY/WX    TMP DP  RH WIND       PRES   REMARKS
NORFOLK        CLOUDY    46  37  71 NE17      30.54S
VIRGINIA BEACH MOCLDY    46  38  73 NE15G25   30.54S
NORFOLK NAVAL  MOCLDY    47  38  71 NE21      30.56S
WEST POINT*    CLEAR     52  35  51 E9        30.57S
NEWPORT NEWS   LGT RAIN  50  38  63 E18       30.55S
LANGLEY AFB    PTCLDY    47  39  73 E17       30.56S
FORT EUSTIS    PTCLDY    48  39  69 VRB7      30.53S
WILLIAMSBURG*    N/A     52  41  66 E6        30.55S
FRANKLIN*      CLEAR     50  39  66 E13G20    30.53S
WAKEFIELD      CLEAR     51  37  58 VRB3      30.53S
$$

VAZ020-022-025-037-045-180000-
WESTERN AND SOUTHWEST VIRGINIA

CITY           SKY/WX    TMP DP  RH WIND       PRES   REMARKS
STAUNTON*      CLEAR     54  24  30 SE6       30.48F
HOT SPRINGS VA SUNNY     45  21  39 SE8       30.45F
LYNCHBURG      CLEAR     61  25  25 E6        30.46F
DANVILLE       CLEAR     60  26  27 E5        30.44F
MARTINSVILLE   SUNNY     59  24  26 E7        30.45S
ROANOKE        SUNNY     56  23  27 E10       30.45F
BLACKSBURG     SUNNY     54  28  37 SE7       30.43F
DUBLIN*        SUNNY     54  25  32 E12       30.41S
MARION*        SUNNY     54  22  29 E9        30.40S
HILLSVILLE*    SUNNY     52   3  14 SE8       30.43S
RICHLANDS*     CLEAR     61  26  26 SE7       30.33S
WISE*          SUNNY     64   9  11 SE5       30.31F
ABINGDON*      SUNNY     65  20  18 SE15      30.31S
$$

MDZ021>025-VAZ099-100-180000-
SOUTHERN MARYLAND AND THE DELMARVA PENINSULA

CITY           SKY/WX    TMP DP  RH WIND       PRES   REMARKS
PATUXENT RIVER MOCLDY    47  31  53 E13       30.58R
BAY BRIDGE APT PTCLDY    46  30  53 E10       30.60S
LEONARDTOWN    PTCLDY    46  32  57 E12G17    30.59S
DOVER          PTCLDY    43  32  65 E10G20    30.58R
GEORGETOWN     CLOUDY    43  31  62 E15G23    30.62R
EASTON         PTCLDY    46  34  61 E9G23     30.64R
CAMBRIDGE      PTCLDY    45  32  61 E9G17     30.60R
SALISBURY      CLOUDY    45  32  60 E13       30.60R
OCEAN CITY     CLOUDY    43  32  65 NE14G23   30.60S
WALLOPS ISLAND MOCLDY    46  35  65 E24       30.58S
ACCOMACK*      PTCLDY    43  32  65 E15       30.57R
$$

NCZ012>017-030>032-180000-
EASTERN NORTH CAROLINA

CITY           SKY/WX    TMP DP  RH WIND       PRES   REMARKS
ELIZABETH CITY PTCLDY    48  39  71 NE24      30.51F
AHOSKIE*       CLEAR     53  38  58 NE9       30.50S
EDENTON*       PTCLDY    50  41  70 NE12G18   30.50S
CURRITUCK*     MOCLDY    48  39  70 NE16G23   30.52F
KILL DEVIL HLS PTCLDY    47  42  81 NE10G22   30.46F
MANTEO         PTCLDY    48  42  80 NE21G26   30.48F
CAPE HATTERAS  CLOUDY    52  47  83 NE14G26   30.43F
GOLDSBORO      CLEAR     62  45  53 NE10      30.39F
WASHINGTON     CLEAR     58  46  63 E14       30.47S
GREENVILLE     CLEAR     59  43  55 E13       30.44F
NEW BERN       CLEAR     58  44  60 NE14G21   30.44F
WILMINGTON     CLEAR     63  48  58 E10       30.37F
$$

VAZ048-180000-
ELSEWHERE

CITY           SKY/WX    TMP DP  RH WIND       PRES   REMARKS
HARRISBURG PA  PTCLDY    53  31  42 SE13      30.53F
BALTIMORE      MOCLDY    49  31  49 SE13      30.58R
ANNAPOLIS      PTCLDY    48  35  60 E16       30.59S
ANDREWS AFB    PTCLDY    48  32  55 E10       30.57S
WILMINGTON DE  PTCLDY    47  30  51 E14       30.62R
PHILADELPHIA   MOCLDY    47  26  44 E15       30.64R
WILDWOOD NJ*   CLOUDY    41  28  60 NE16G24   30.63S
ATLANTIC CITY  MOCLDY    40  29  64 E16G23    30.63F
HENDERSON NC   CLEAR     59  33  37 E9        30.44F
GREENSBORO     MOSUNNY   59  24  26 E7        30.41F
ROCKY MOUNT      N/A    N/A N/A N/A MISG      30.44F
FAYETTEVILLE   CLEAR     63  41  44 NE9       30.39F
CHARLOTTE      NOT AVBL
$$

VAZ100-180000-
MARINE

STATION/POSITION TIME  TEMP    WIND        PRES    WAVE   SWELL
                       AIR SEA DIR/SP/G            HT/PER HT/PER
                 (UTC) (F)     (DEG/KT/KT) (MB)    (FT/S) (FT/S)
44066 TX TWR #4  2300   40 45   50/ 21/ 27 1035.7F   9/ 8
CAPE MAY NJ      2300   42 52   80/ 11/ 18 1036.6R
LEWES DE         2300   42 49   80/ 19/ 23 1036.0S
15NM E FENWICK I 2300   42 45              1035.8F   8/ 9
OCEAN-CITY-INLET 2300   43 48   70/ 10/ 18 1035.9S
WACHAPREAGUE VA  2300   45 56   40/ 20/ 25 1034.7S
THOMAS POINT MD  2300   46 52  100/ 15/ 18 1036.3S
GOOSES REEF MD   2300   47      90/ 14/ 17 1036.4S
COVE POINT MD    2300   47     110/ 13/ 14 1035.5R
SOLOMONS ISLAND  2300      52                N/A
BISHOPS HEAD MD  2300   46 55   80/ 12/ 20 1035.3S
PINEY POINT MD   2300          100/ 11/ 14   N/A
POTOMAC MD       2300   48      70/ 14/ 17 1034.6R
CAMBRIDGE MD     2300   45 56   80/ 14/ 18 1035.6R
LEWISETTA VA     2300   49 53   80/ 13/ 17 1034.8S
RAPPAHANNOCK LGT 2300           50/ 18/ 19 1035.1S
STINGRAY PT      2300   48      80/ 16/ 17 1034.7S
YORK RVR RNG VA  2300   47      90/ 17/ 19 1033.8S
YORKTOWN VA      2300   48 56   80/ 16/ 19 1034.5S
JAMESTOWN VA     2300   49     120/ 10/ 14   N/A
DOMINION TERM VA 2300   47      60/ 11/ 17 1034.4F
KIPTOPEKE VA     2300      53   60/ 15/ 22   N/A
CHES BAY BRIDGE  2300   45 52   30/ 23/ 27 1034.0R
CAPE HENRY VA    2300   45      40/ 21/ 25   N/A
CHESAPEAKE LGHT  2200   45      50/ 25/ 27 1034.3F
WILLOUBY STN VA  2300   46      70/ 20/ 22 1033.3F
S CRANEY ISL VA  2300           30/ 17/ 22 1034.3F
CAPE HENRY BUOY  2300      47                N/A     7/ 7   2/11
1ST LANDING BUOY 2300      46                N/A     8/ 9   5/ 9
64NM E OF VA BCH 2300   51 53   30/ 21/ 25 1031.7F   9/10   5/10
DUCK PIER NC     2300   47 51   30/ 24/ 28 1031.3F
44100 DUCK FRF   2300      47                N/A    10/ 8   2/11
44056 DUCK FRF   2300      50                N/A     8/ 7   2/11
OREGON INLET NC  2300   48 52   10/ 15/ 22 1031.3F
HATTERAS NC      2300   53 56   10/ 16/ 25 1030.3F
CAPE LOOKOUT NC  2200   56      30/ 21/ 23 1030.0F
FRYING PAN SHLS  2300   61 62   60/ 21/ 25 1027.0F   8/ 7
$$



USA.gov is the U.S. government's official web portal to all federal, state and local government web resources and services.